| time (UTC) | temp F | wind direction | speed MPH | gust MPH | rain 1hr in | rain 24hr in | rain mn in | humidity % | barometer mb |
| 20260831091512 | 75 | 273 | 1.0 | 7.0 | 0.00 | 0.00 | 0.00 | 83 | 1012.9 |
| 20260831090012 | 75 | 262 | 3.0 | 9.0 | 0.00 | 0.00 | 0.00 | 82 | 1012.9 |
| 20260831084509 | 76 | 219 | 2.0 | 10.0 | 0.00 | 0.00 | 0.00 | 81 | 1013.0 |
| 20260831083008 | 76 | 218 | 2.0 | 6.0 | 0.00 | 0.00 | 0.00 | 80 | 1013.1 |
| 20260831081506 | 76 | 213 | 0.0 | 7.0 | 0.00 | 0.00 | 0.00 | 78 | 1013.3 |
| 20260831080006 | 76 | 242 | 1.0 | 9.0 | 0.00 | 0.00 | 0.00 | 78 | 1013.4 |
| 20260831074503 | 77 | 178 | 2.0 | 9.0 | 0.00 | 0.00 | 0.00 | 76 | 1013.5 |
| 20260831073002 | 77 | 129 | 1.0 | 7.0 | 0.00 | 0.00 | 0.00 | 75 | 1013.5 |
| 20260831071600 | 78 | 130 | 1.0 | 5.0 | 0.00 | 0.00 | 0.00 | 73 | 1013.4 |
| 20260831064554 | 79 | 99 | 1.0 | 4.0 | 0.00 | 0.00 | 0.00 | 70 | 1013.3 |
| 20260831063053 | 79 | 346 | 1.0 | 5.0 | 0.00 | 0.00 | 0.00 | 68 | 1013.2 |
| 20260831061551 | 79 | 15 | 2.0 | 10.0 | 0.00 | 0.00 | 0.00 | 68 | 1013.0 |
| 20260831060049 | 80 | 323 | 4.0 | 11.0 | 0.00 | 0.00 | 0.00 | 68 | 1013.0 |
| 20260831054546 | 80 | 216 | 3.0 | 10.0 | 0.00 | 0.00 | 0.00 | 68 | 1013.0 |
| 20260831053043 | 81 | 263 | 2.0 | 9.0 | 0.00 | 0.00 | 0.00 | 67 | 1012.8 |
| 20260831051539 | 81 | 186 | 3.0 | 9.0 | 0.00 | 0.00 | 0.00 | 66 | 1012.7 |
| 20260831050036 | 82 | 5 | 5.0 | 11.0 | 0.00 | 0.00 | 0.00 | 64 | 1012.5 |
| 20260831044536 | 82 | 165 | 4.0 | 9.0 | 0.00 | 0.00 | 0.00 | 63 | 1012.6 |
| 20260831043034 | 83 | 279 | 3.0 | 7.0 | 0.00 | 0.00 | 0.00 | 61 | 1012.5 |
| 20260831041534 | 83 | 5 | 4.0 | 11.0 | 0.00 | 0.00 | 0.00 | 60 | 1012.4 |
| 20260831040034 | 84 | 109 | 3.0 | 9.0 | 0.00 | 0.00 | 0.00 | 58 | 1012.4 |
| 20260831034535 | 83 | 55 | 2.0 | 12.0 | 0.00 | 0.00 | 0.00 | 58 | 1012.2 |
| 20260831033037 | 80 | 40 | 6.0 | 13.0 | 0.00 | 0.00 | 0.00 | 61 | 1012.0 |
| 20260831031532 | 79 | 46 | 0.0 | 2.0 | 0.00 | 0.00 | 0.00 | 60 | 1011.8 |
| 20260831030032 | 80 | 46 | 0.0 | 0.0 | 0.00 | 0.00 | 0.00 | 57 | 1011.7 |
| 20260831024531 | 82 | 46 | 0.0 | 0.0 | 0.00 | 0.00 | 0.00 | 55 | 1011.7 |
| 20260831023030 | 84 | 46 | 0.0 | 2.0 | 0.00 | 0.00 | 0.00 | 53 | 1011.4 |
| 20260831021530 | 85 | 46 | 1.0 | 3.0 | 0.00 | 0.00 | 0.00 | 50 | 1011.2 |
| 20260831020029 | 86 | 46 | 1.0 | 4.0 | 0.00 | 0.00 | 0.00 | 48 | 1011.0 |
| 20260831014528 | 87 | 47 | 2.0 | 4.0 | 0.00 | 0.00 | 0.00 | 47 | 1010.9 |
| 20260831013027 | 87 | 51 | 2.0 | 6.0 | 0.00 | 0.00 | 0.00 | 46 | 1010.6 |
| 20260831011526 | 88 | 49 | 3.0 | 7.0 | 0.00 | 0.00 | 0.00 | 46 | 1010.6 |
| 20260831010028 | 88 | 53 | 2.0 | 6.0 | 0.00 | 0.00 | 0.00 | 45 | 1010.6 |
| 20260831004526 | 89 | 36 | 2.0 | 8.0 | 0.00 | 0.00 | 0.00 | 45 | 1010.5 |
| 20260831003025 | 89 | 138 | 3.0 | 9.0 | 0.00 | 0.00 | 0.00 | 44 | 1010.4 |
| 20260831001524 | 90 | 114 | 5.0 | 10.0 | 0.00 | 0.00 | 0.00 | 44 | 1010.3 |
| 20260831000024 | 90 | 40 | 3.0 | 10.0 | 0.00 | 0.00 | 0.00 | 43 | 1010.2 |
| 20260830234529 | 91 | 66 | 3.0 | 9.0 | 0.00 | 0.00 | 0.00 | 44 | 1010.2 |
| 20260830233022 | 91 | 63 | 4.0 | 10.0 | 0.00 | 0.00 | 0.00 | 43 | 1010.3 |
| 20260830231522 | 92 | 57 | 6.0 | 14.0 | 0.00 | 0.00 | 0.00 | 42 | 1010.3 |
| 20260830230021 | 93 | 46 | 3.0 | 12.0 | 0.00 | 0.00 | 0.00 | 40 | 1010.2 |
| 20260830224520 | 93 | 130 | 5.0 | 12.0 | 0.00 | 0.00 | 0.00 | 39 | 1010.2 |
| 20260830223019 | 92 | 98 | 3.0 | 11.0 | 0.00 | 0.00 | 0.00 | 41 | 1010.4 |
| 20260830221518 | 93 | 66 | 4.0 | 10.0 | 0.00 | 0.00 | 0.00 | 41 | 1010.2 |
| 20260830220020 | 93 | 175 | 5.0 | 9.0 | 0.00 | 0.00 | 0.00 | 41 | 1010.2 |
| 20260830214517 | 93 | 183 | 2.0 | 11.0 | 0.00 | 0.00 | 0.00 | 40 | 1010.3 |
| 20260830213016 | 95 | 75 | 3.0 | 12.0 | 0.00 | 0.00 | 0.00 | 40 | 1010.4 |
| 20260830211514 | 93 | 188 | 3.0 | 7.0 | 0.00 | 0.00 | 0.00 | 42 | 1010.5 |
| 20260830210012 | 93 | 39 | 4.0 | 11.0 | 0.00 | 0.00 | 0.00 | 41 | 1010.9 |
| 20260830204510 | 93 | 107 | 4.0 | 13.0 | 0.00 | 0.00 | 0.00 | 41 | 1011.3 |
| 20260830203022 | 94 | 157 | 4.0 | 15.0 | 0.00 | 0.00 | 0.00 | 40 | 1011.4 |
| 20260830201507 | 94 | 47 | 2.0 | 11.0 | 0.00 | 0.00 | 0.00 | 40 | 1011.7 |
| 20260830200005 | 96 | 82 | 2.0 | 9.0 | 0.00 | 0.00 | 0.00 | 38 | 1012.0 |
| 20260830194504 | 95 | 188 | 3.0 | 13.0 | 0.00 | 0.00 | 0.00 | 39 | 1012.1 |
| 20260830193007 | 96 | 226 | 5.0 | 10.0 | 0.00 | 0.00 | 0.00 | 39 | 1012.3 |
| 20260830191600 | 96 | 127 | 3.0 | 8.0 | 0.00 | 0.00 | 0.00 | 37 | 1012.5 |
| 20260830190058 | 95 | 196 | 4.0 | 12.0 | 0.00 | 0.00 | 0.00 | 41 | 1012.6 |
| 20260830184556 | 94 | 126 | 5.0 | 11.0 | 0.00 | 0.00 | 0.00 | 41 | 1012.8 |
| 20260830183052 | 94 | 155 | 5.0 | 10.0 | 0.00 | 0.00 | 0.00 | 43 | 1013.1 |
| 20260830181549 | 94 | 254 | 4.0 | 11.0 | 0.00 | 0.00 | 0.00 | 43 | 1013.4 |
| 20260830180047 | 94 | 136 | 3.0 | 10.0 | 0.00 | 0.00 | 0.00 | 44 | 1013.5 |
| 20260830174550 | 93 | 145 | 5.0 | 12.0 | 0.00 | 0.00 | 0.00 | 45 | 1013.9 |
| 20260830173103 | 92 | 160 | 5.0 | 11.0 | 0.00 | 0.00 | 0.00 | 47 | 1014.1 |
| 20260830171540 | 92 | 202 | 6.0 | 11.0 | 0.00 | 0.00 | 0.00 | 49 | 1014.3 |
| 20260830170035 | 90 | 205 | 4.0 | 11.0 | 0.00 | 0.00 | 0.00 | 52 | 1014.5 |
| 20260830164535 | 89 | 190 | 4.0 | 15.0 | 0.00 | 0.00 | 0.00 | 52 | 1014.6 |
| 20260830163036 | 89 | 204 | 5.0 | 10.0 | 0.00 | 0.00 | 0.00 | 52 | 1014.6 |
| 20260830161527 | 87 | 188 | 6.0 | 10.0 | 0.00 | 0.00 | 0.00 | 57 | 1014.8 |
| 20260830160028 | 87 | 161 | 4.0 | 12.0 | 0.00 | 0.00 | 0.00 | 59 | 1014.8 |
| 20260830154524 | 86 | 182 | 3.0 | 10.0 | 0.00 | 0.00 | 0.00 | 61 | 1014.6 |
| 20260830153021 | 86 | 185 | 4.0 | 7.0 | 0.00 | 0.00 | 0.00 | 63 | 1014.5 |
| 20260830151518 | 84 | 189 | 2.0 | 8.0 | 0.00 | 0.00 | 0.00 | 66 | 1014.5 |
| 20260830150015 | 83 | 191 | 3.0 | 8.0 | 0.00 | 0.00 | 0.00 | 69 | 1014.4 |
| 20260830144510 | 81 | 186 | 3.0 | 8.0 | 0.00 | 0.00 | 0.00 | 72 | 1014.5 |
| 20260830143009 | 80 | 190 | 3.0 | 8.0 | 0.00 | 0.00 | 0.00 | 75 | 1014.6 |
| 20260830141509 | 78 | 188 | 4.0 | 10.0 | 0.00 | 0.00 | 0.00 | 78 | 1014.7 |
| 20260830140007 | 77 | 185 | 2.0 | 8.0 | 0.00 | 0.00 | 0.00 | 82 | 1014.6 |
| 20260830134506 | 75 | 181 | 2.0 | 6.0 | 0.00 | 0.00 | 0.00 | 85 | 1014.5 |
| 20260830133004 | 73 | 180 | 1.0 | 8.0 | 0.00 | 0.00 | 0.00 | 85 | 1014.3 |
| 20260830131503 | 73 | 192 | 1.0 | 3.0 | 0.00 | 0.00 | 0.00 | 85 | 1014.2 |
| 20260830130003 | 73 | 192 | 0.0 | 0.0 | 0.00 | 0.00 | 0.00 | 85 | 1014.0 |
| 20260830124502 | 73 | 192 | 0.0 | 0.0 | 0.00 | 0.00 | 0.00 | 85 | 1013.9 |
| 20260830123001 | 73 | 192 | 0.0 | 0.0 | 0.00 | 0.00 | 0.00 | 85 | 1013.9 |
| 20260830121606 | 73 | 192 | 0.0 | 1.0 | 0.00 | 0.00 | 0.00 | 85 | 1013.9 |
| 20260830120100 | 73 | 192 | 0.0 | 3.0 | 0.00 | 0.00 | 0.00 | 85 | 1013.9 |
| 20260830114612 | 73 | 192 | 0.0 | 3.0 | 0.00 | 0.00 | 0.00 | 84 | 1013.9 |
| 20260830113100 | 73 | 192 | 2.0 | 4.0 | 0.00 | 0.00 | 0.00 | 84 | 1013.8 |
| 20260830111558 | 73 | 192 | 0.0 | 4.0 | 0.00 | 0.00 | 0.00 | 84 | 1013.8 |
| 20260830110100 | 73 | 192 | 1.0 | 3.0 | 0.00 | 0.00 | 0.00 | 83 | 1013.7 |
| 20260830104610 | 73 | 192 | 0.0 | 0.0 | 0.00 | 0.00 | 0.00 | 82 | 1013.7 |
| 20260830103058 | 74 | 192 | 0.0 | 1.0 | 0.00 | 0.00 | 0.00 | 81 | 1013.7 |
| 20260830101552 | 74 | 192 | 1.0 | 3.0 | 0.00 | 0.00 | 0.00 | 81 | 1013.7 |
| 20260830100051 | 74 | 192 | 2.0 | 4.0 | 0.00 | 0.00 | 0.00 | 80 | 1013.7 |
| 20260830094550 | 75 | 192 | 1.0 | 6.0 | 0.00 | 0.00 | 0.00 | 80 | 1013.9 |
| 20260830093058 | 75 | 200 | 1.0 | 4.0 | 0.00 | 0.00 | 0.00 | 80 | 1013.9 |